StationID,Date,MaxTemp,MinTemp,Precipitation,Snowfall,SnowDepth
"USC00502425","1970-10-01",26.96,-7.06,0.00,0.00,0.00
"USC00502425","1970-10-02",28.04,-5.98,0.00,0.00,0.00
"USC00502425","1970-10-03",28.04,-7.06,0.00,0.00,0.00
"USC00502425","1970-10-04",24.98,-5.98,0.00,0.00,0.00
"USC00502425","1970-10-05",26.06,-9.04,0.00,0.00,0.00
"USC00502425","1970-10-06",24.98,-2.02,38.00,33.00,25.00
"USC00502425","1970-10-07",30.02,17.06,46.00,48.00,51.00
"USC00502425","1970-10-08",,,0.00,0.00,0.00
"USC00502425","1970-10-09",35.96,24.08,132.00,76.00,76.00
"USC00502425","1970-10-10",35.06,17.96,5.00,0.00,76.00
"USC00502425","1970-10-11",19.04,-22.00,0.00,0.00,76.00
"USC00502425","1970-10-12",3.92,-32.98,0.00,0.00,76.00
"USC00502425","1970-10-13",19.04,-20.02,0.00,0.00,76.00
"USC00502425","1970-10-14",30.02,10.94,10.00,0.00,76.00
"USC00502425","1970-10-15",17.96,-25.06,0.00,0.00,76.00
"USC00502425","1970-10-16",17.96,-32.08,0.00,0.00,76.00
"USC00502425","1970-10-17",17.06,-31.00,0.00,0.00,76.00
"USC00502425","1970-10-18",12.92,-13.00,8.00,30.00,102.00
"USC00502425","1970-10-19",10.04,-2.92,0.00,0.00,102.00
"USC00502425","1970-10-20",8.96,-11.92,0.00,0.00,102.00
"USC00502425","1970-10-21",1.94,-20.92,0.00,0.00,102.00
"USC00502425","1970-10-22",-0.04,-23.98,0.00,0.00,102.00
"USC00502425","1970-10-23",-4.00,-32.08,0.00,0.00,102.00
"USC00502425","1970-10-24",-11.92,-36.94,0.00,0.00,102.00
"USC00502425","1970-10-25",10.04,-14.98,0.00,0.00,102.00
"USC00502425","1970-10-26",6.98,-16.06,0.00,0.00,102.00
"USC00502425","1970-10-27",-11.02,-32.98,0.00,0.00,102.00
"USC00502425","1970-10-28",17.96,-32.08,107.00,94.00,178.00
"USC00502425","1970-10-29",,,0.00,0.00,0.00
"USC00502425","1970-10-30",28.04,3.02,8.00,23.00,203.00
"USC00502425","1970-10-31",35.96,-2.02,0.00,0.00,178.00
"USC00502425","1970-11-02",33.98,1.04,,,305.00
"USC00502425","1970-11-03",24.08,-11.02,0.00,0.00,305.00
"USC00502425","1970-11-04",,,0.00,0.00,
"USC00502425","1970-11-05",32.00,5.00,0.00,0.00,279.00
"USC00502425","1970-11-06",28.04,-11.02,0.00,0.00,279.00
"USC00502425","1970-11-07",,,0.00,0.00,
"USC00502425","1970-11-08",5.00,-14.08,0.00,0.00,279.00
"USC00502425","1970-11-09",-0.04,-23.98,0.00,0.00,279.00
"USC00502425","1970-11-10",-2.92,-18.04,0.00,0.00,279.00
"USC00502425","1970-11-11",-11.02,-22.00,0.00,0.00,279.00
"USC00502425","1970-11-12",14.00,-20.92,0.00,0.00,279.00
"USC00502425","1970-11-13",19.94,-18.94,0.00,0.00,279.00
"USC00502425","1970-11-14",-16.06,-29.92,0.00,0.00,279.00
"USC00502425","1970-11-15",-22.00,-29.92,0.00,0.00,279.00
"USC00502425","1970-11-16",-25.96,-36.94,0.00,0.00,279.00
"USC00502425","1970-11-17",10.04,-32.98,51.00,91.00,356.00
"USC00502425","1970-11-18",8.96,-34.06,5.00,10.00,356.00
"USC00502425","1970-11-19",-5.98,-32.08,0.00,0.00,356.00
"USC00502425","1970-11-20",-0.04,-36.94,36.00,41.00,406.00
"USC00502425","1970-11-21",1.94,-32.98,8.00,15.00,406.00
"USC00502425","1970-11-22",-16.06,-43.96,8.00,8.00,406.00
"USC00502425","1970-11-23",-25.96,-43.06,0.00,0.00,406.00
"USC00502425","1970-11-24",-23.08,-45.04,0.00,0.00,406.00
"USC00502425","1970-11-25",-5.08,-29.02,33.00,23.00,432.00
"USC00502425","1970-11-26",-29.02,-43.06,0.00,0.00,432.00
"USC00502425","1970-11-27",-4.00,-41.08,114.00,147.00,584.00
"USC00502425","1970-11-28",10.94,-7.06,5.00,0.00,584.00
"USC00502425","1970-11-29",1.94,-41.08,0.00,0.00,559.00
"USC00502425","1970-11-30",-40.00,-50.98,0.00,0.00,559.00
"USC00502425","1970-12-01",-25.06,-47.92,0.00,0.00,483.00
"USC00502425","1970-12-02",-32.98,-43.96,0.00,0.00,483.00
"USC00502425","1970-12-03",-40.00,-45.94,0.00,0.00,483.00
"USC00502425","1970-12-04",-40.00,-47.02,0.00,0.00,483.00
"USC00502425","1970-12-05",1.94,-45.04,0.00,0.00,483.00
"USC00502425","1970-12-06",8.06,-34.06,0.00,0.00,483.00
"USC00502425","1970-12-07",6.08,-11.02,0.00,0.00,483.00
"USC00502425","1970-12-08",1.04,-27.04,0.00,0.00,483.00
"USC00502425","1970-12-09",8.06,-31.00,0.00,0.00,483.00
"USC00502425","1970-12-10",6.98,-27.94,0.00,0.00,483.00
"USC00502425","1970-12-11",-2.02,-36.04,0.00,0.00,483.00
"USC00502425","1970-12-12",-2.92,-27.94,0.00,0.00,483.00
"USC00502425","1970-12-13",-2.02,-25.96,0.00,0.00,483.00
"USC00502425","1970-12-14",6.98,-27.04,0.00,0.00,457.00
"USC00502425","1970-12-15",-5.98,-27.04,0.00,0.00,457.00
"USC00502425","1970-12-16",5.00,-13.00,8.00,51.00,508.00
"USC00502425","1970-12-17",-5.98,-27.94,0.00,0.00,508.00
"USC00502425","1970-12-18",8.96,-20.02,0.00,0.00,508.00
"USC00502425","1970-12-19",5.00,-13.00,0.00,0.00,508.00
"USC00502425","1970-12-20",15.08,-2.02,43.00,51.00,559.00
"USC00502425","1970-12-21",26.96,12.02,66.00,76.00,635.00
"USC00502425","1970-12-22",24.08,6.08,8.00,25.00,660.00
"USC00502425","1970-12-23",19.04,-4.00,8.00,25.00,686.00
"USC00502425","1970-12-24",17.96,-4.00,28.00,43.00,584.00
"USC00502425","1970-12-25",-2.02,-38.92,0.00,0.00,584.00
"USC00502425","1970-12-26",-11.92,-27.04,0.00,0.00,584.00
"USC00502425","1970-12-27",-16.96,-34.96,0.00,0.00,584.00
"USC00502425","1970-12-28",-16.06,-47.92,0.00,0.00,584.00
"USC00502425","1970-12-29",-16.06,-50.08,0.00,0.00,584.00
"USC00502425","1970-12-30",-9.94,-38.92,25.00,51.00,635.00
"USC00502425","1970-12-31",-16.96,-47.92,0.00,0.00,635.00
"USC00502425","1971-01-01",-23.98,-49.00,0.00,0.00,635.00
"USC00502425","1971-01-02",-27.94,-50.98,0.00,0.00,635.00
"USC00502425","1971-01-03",10.04,1.94,0.00,0.00,635.00
"USC00502425","1971-01-04",17.96,6.08,20.00,25.00,660.00
"USC00502425","1971-01-05",24.08,8.06,46.00,76.00,737.00
"USC00502425","1971-01-06",17.06,-43.06,0.00,0.00,737.00
"USC00502425","1971-01-07",-25.06,-43.96,0.00,0.00,737.00
"USC00502425","1971-01-08",-38.02,-54.04,0.00,0.00,711.00
"USC00502425","1971-01-09",-47.02,-56.02,0.00,0.00,711.00
"USC00502425","1971-01-10",-20.92,-52.06,0.00,0.00,711.00
"USC00502425","1971-01-11",-20.02,-40.00,0.00,0.00,686.00
"USC00502425","1971-01-12",-29.92,-41.98,0.00,0.00,686.00
"USC00502425","1971-01-13",-38.02,-43.06,0.00,0.00,686.00
"USC00502425","1971-01-14",-25.96,-41.98,0.00,0.00,660.00
"USC00502425","1971-01-15",-23.98,-41.98,0.00,0.00,660.00
"USC00502425","1971-01-16",-36.94,-52.06,0.00,0.00,660.00
"USC00502425","1971-01-17",-50.98,-58.00,0.00,0.00,660.00
"USC00502425","1971-01-18",-54.04,-59.98,0.00,0.00,660.00
"USC00502425","1971-01-19",-52.96,-63.04,0.00,0.00,660.00
"USC00502425","1971-01-20",-34.06,-52.96,0.00,0.00,660.00
"USC00502425","1971-01-21",-23.08,-47.92,0.00,0.00,660.00
"USC00502425","1971-01-22",-47.92,-63.94,0.00,0.00,660.00
"USC00502425","1971-01-23",-61.96,-70.06,0.00,0.00,635.00
"USC00502425","1971-01-24",-40.00,-68.08,0.00,0.00,635.00
"USC00502425","1971-01-25",-41.08,-54.04,0.00,0.00,635.00
"USC00502425","1971-01-26",-41.08,-56.92,0.00,0.00,635.00
"USC00502425","1971-01-27",-47.02,-59.08,0.00,0.00,635.00
"USC00502425","1971-01-28",-22.00,-41.08,0.00,0.00,635.00
"USC00502425","1971-01-29",-34.96,-54.04,0.00,0.00,635.00
"USC00502425","1971-01-30",-14.98,-36.04,0.00,0.00,635.00
"USC00502425","1971-01-31",-7.06,-32.98,0.00,0.00,635.00
"USC00502425","1971-02-01",-20.02,-38.02,0.00,0.00,610.00
"USC00502425","1971-02-02",-34.96,-47.92,0.00,0.00,610.00
"USC00502425","1971-02-03",-41.98,-59.98,0.00,0.00,610.00
"USC00502425","1971-02-04",-45.04,-56.02,0.00,0.00,610.00
"USC00502425","1971-02-05",-22.00,-54.04,0.00,0.00,610.00
"USC00502425","1971-02-06",-2.02,-43.06,61.00,102.00,711.00
"USC00502425","1971-02-07",-0.94,-47.92,0.00,0.00,711.00
"USC00502425","1971-02-08",6.98,-9.94,61.00,102.00,813.00
"USC00502425","1971-02-09",12.92,-14.98,0.00,0.00,813.00
"USC00502425","1971-02-10",10.94,-25.96,0.00,0.00,813.00
"USC00502425","1971-02-11",-25.96,-50.08,0.00,0.00,813.00
"USC00502425","1971-02-12",-29.92,-52.96,0.00,0.00,787.00
"USC00502425","1971-02-13",-27.94,-56.02,0.00,0.00,787.00
"USC00502425","1971-02-14",-32.98,-49.00,0.00,0.00,787.00
"USC00502425","1971-02-15",-27.94,-52.06,0.00,0.00,762.00
"USC00502425","1971-02-16",-9.94,-47.92,0.00,0.00,762.00
"USC00502425","1971-02-17",-0.94,-32.08,0.00,0.00,762.00
"USC00502425","1971-02-18",12.02,-9.94,0.00,0.00,762.00
"USC00502425","1971-02-19",12.02,-20.02,43.00,76.00,838.00
"USC00502425","1971-02-20",23.00,-7.96,0.00,0.00,838.00
"USC00502425","1971-02-21",17.96,-22.00,0.00,0.00,838.00
"USC00502425","1971-02-22",21.02,-0.94,30.00,51.00,889.00
"USC00502425","1971-02-23",1.94,-25.06,0.00,0.00,889.00
"USC00502425","1971-02-24",-25.06,-40.00,0.00,0.00,889.00
"USC00502425","1971-02-25",-34.06,-63.94,0.00,0.00,889.00
"USC00502425","1971-02-26",-27.94,-61.96,0.00,0.00,864.00
"USC00502425","1971-02-27",-18.04,-50.08,0.00,0.00,864.00
"USC00502425","1971-02-28",-22.00,-41.08,0.00,0.00,864.00
"USC00502425","1971-03-01",-23.98,-61.06,,,864.00
"USC00502425","1971-03-02",-25.06,-61.06,,,
"USC00502425","1971-03-03",-25.06,-56.92,,,
"USC00502425","1971-03-04",-29.02,-58.00,,,
"USC00502425","1971-03-05",-29.92,-54.04,,,
"USC00502425","1971-03-06",-11.02,-43.06,,,
"USC00502425","1971-03-07",-7.06,-11.02,,,
"USC00502425","1971-03-08",-7.06,-50.08,,,
"USC00502425","1971-03-09",-4.00,-36.94,,,
"USC00502425","1971-03-10",-4.00,-34.96,,,
"USC00502425","1971-03-11",-4.00,-9.94,,,
"USC00502425","1971-03-12",-7.96,-18.94,,,
"USC00502425","1971-03-13",-4.00,-13.00,,,
"USC00502425","1971-03-14",5.00,-25.06,,,
"USC00502425","1971-03-15",1.94,-41.98,,,
"USC00502425","1971-03-16",19.94,-29.02,,,
"USC00502425","1971-03-17",28.04,-14.08,,,
"USC00502425","1971-03-18",21.02,-27.94,,,
"USC00502425","1971-03-19",21.92,-18.94,,,762.00
"USC00502425","1971-03-20",24.08,-27.94,,,762.00
"USC00502425","1971-03-21",21.02,-23.98,,,762.00
"USC00502425","1971-03-22",32.00,-5.98,,,762.00
"USC00502425","1971-03-23",28.94,-7.06,,,762.00
"USC00502425","1971-03-24",8.06,-18.94,,,762.00
"USC00502425","1971-03-25",28.04,-25.96,,,762.00
"USC00502425","1971-03-26",24.08,-23.08,,,762.00
"USC00502425","1971-03-27",24.08,-5.98,,,762.00
"USC00502425","1971-03-28",-22.00,-41.08,,,762.00
"USC00502425","1971-03-29",26.06,-31.00,,,762.00
"USC00502425","1971-03-30",24.08,-27.04,,,762.00
"USC00502425","1971-03-31",12.02,-7.06,,,762.00
"USC00502425","1971-04-01",15.08,-32.08,0.00,0.00,762.00
"USC00502425","1971-04-02",17.96,-34.06,0.00,0.00,
"USC00502425","1971-04-03",23.00,-13.00,0.00,0.00,
"USC00502425","1971-04-04",26.06,-20.92,0.00,0.00,
"USC00502425","1971-04-05",24.98,-11.92,0.00,0.00,737.00
"USC00502425","1971-04-06",28.04,-7.06,0.00,0.00,
"USC00502425","1971-04-07",28.04,-9.94,0.00,0.00,
"USC00502425","1971-04-08",30.92,-31.00,0.00,0.00,
"USC00502425","1971-04-09",12.02,-25.06,0.00,0.00,
"USC00502425","1971-04-10",12.02,-11.02,0.00,0.00,
"USC00502425","1971-04-11",19.94,-7.96,0.00,0.00,711.00
"USC00502425","1971-04-12",28.04,8.96,0.00,0.00,711.00
"USC00502425","1971-04-13",41.00,23.00,0.00,0.00,711.00
"USC00502425","1971-04-14",44.06,28.04,0.00,0.00,711.00
"USC00502425","1971-04-15",37.94,21.92,51.00,51.00,711.00
"USC00502425","1971-04-16",37.94,21.02,0.00,0.00,711.00
"USC00502425","1971-04-17",41.00,8.96,0.00,0.00,711.00
"USC00502425","1971-04-18",44.96,8.06,0.00,0.00,711.00
"USC00502425","1971-04-19",37.04,10.94,13.00,13.00,737.00
"USC00502425","1971-04-20",39.92,-0.94,0.00,0.00,711.00
"USC00502425","1971-04-21",39.02,6.98,0.00,0.00,711.00
"USC00502425","1971-04-22",42.98,17.96,0.00,0.00,686.00
"USC00502425","1971-04-23",41.00,8.96,0.00,0.00,660.00
"USC00502425","1971-04-24",44.96,17.96,0.00,0.00,660.00
"USC00502425","1971-04-25",44.96,14.00,0.00,0.00,610.00
"USC00502425","1971-04-26",32.00,3.02,0.00,0.00,584.00
"USC00502425","1971-04-27",30.02,3.92,0.00,0.00,584.00
"USC00502425","1971-04-28",-22.00,-41.08,0.00,0.00,584.00
"USC00502425","1971-04-29",24.98,5.00,0.00,0.00,584.00
"USC00502425","1971-04-30",30.92,1.94,0.00,0.00,584.00
"USC00502425","1971-05-01",37.04,5.00,0.00,0.00,584.00
"USC00502425","1971-05-02",37.04,12.02,0.00,0.00,559.00
"USC00502425","1971-05-03",42.98,26.06,25.00,25.00,559.00
"USC00502425","1971-05-04",42.98,30.02,0.00,0.00,483.00
"USC00502425","1971-05-05",41.00,24.98,0.00,0.00,457.00
"USC00502425","1971-05-06",42.98,30.02,0.00,0.00,381.00
"USC00502425","1971-05-07",44.96,28.94,0.00,0.00,330.00
"USC00502425","1971-05-08",33.98,24.98,13.00,13.00,330.00
"USC00502425","1971-05-09",33.98,10.94,0.00,0.00,305.00
"USC00502425","1971-05-10",37.04,15.08,0.00,0.00,279.00
"USC00502425","1971-05-11",41.00,28.94,0.00,0.00,229.00
"USC00502425","1971-05-12",48.92,33.08,0.00,0.00,127.00
"USC00502425","1971-05-13",50.00,30.02,0.00,0.00,51.00
"USC00502425","1971-05-14",51.08,28.94,0.00,0.00,0.00
"USC00502425","1971-05-15",50.00,30.02,0.00,0.00,0.00
"USC00502425","1971-05-16",46.04,23.00,8.00,8.00,0.00
"USC00502425","1971-05-17",48.92,26.06,0.00,0.00,0.00
"USC00502425","1971-05-18",51.98,32.00,0.00,0.00,0.00
"USC00502425","1971-05-19",55.04,33.98,0.00,0.00,0.00
"USC00502425","1971-05-20",55.04,30.02,0.00,0.00,0.00
"USC00502425","1971-05-21",53.96,28.04,0.00,0.00,0.00
"USC00502425","1971-05-22",51.98,26.96,0.00,0.00,0.00
"USC00502425","1971-05-23",57.92,26.96,0.00,0.00,0.00
"USC00502425","1971-05-24",51.98,35.06,0.00,0.00,0.00
"USC00502425","1971-05-25",51.08,39.92,0.00,0.00,0.00
"USC00502425","1971-05-26",59.00,33.98,0.00,0.00,0.00
"USC00502425","1971-05-27",48.92,35.06,8.00,0.00,0.00
"USC00502425","1971-05-28",-22.00,-41.08,0.00,0.00,0.00
"USC00502425","1971-05-29",60.08,35.06,38.00,0.00,0.00
"USC00502425","1971-05-30",59.00,37.94,51.00,0.00,0.00
"USC00502425","1971-05-31",55.04,41.00,51.00,0.00,0.00
"USC00502425","1971-06-01",55.94,35.06,25.00,0.00,0.00
"USC00502425","1971-06-02",57.92,35.06,18.00,0.00,0.00
"USC00502425","1971-06-03",53.06,35.06,8.00,0.00,0.00
"USC00502425","1971-06-04",62.06,35.96,0.00,0.00,0.00
"USC00502425","1971-06-05",71.06,44.06,0.00,0.00,0.00
"USC00502425","1971-06-06",73.94,41.00,0.00,0.00,0.00
"USC00502425","1971-06-07",71.06,42.08,0.00,0.00,0.00
"USC00502425","1971-06-08",73.94,42.98,0.00,0.00,0.00
"USC00502425","1971-06-09",77.00,44.06,0.00,0.00,0.00
"USC00502425","1971-06-10",71.06,39.02,0.00,0.00,0.00
"USC00502425","1971-06-11",64.04,39.02,0.00,0.00,0.00
"USC00502425","1971-06-12",53.96,30.92,0.00,0.00,0.00
"USC00502425","1971-06-13",42.98,30.92,0.00,0.00,0.00
"USC00502425","1971-06-14",44.06,32.00,20.00,0.00,0.00
"USC00502425","1971-06-15",57.02,39.02,5.00,0.00,0.00
"USC00502425","1971-06-16",66.02,42.98,30.00,0.00,0.00
"USC00502425","1971-06-17",68.00,39.92,15.00,0.00,0.00
"USC00502425","1971-06-18",71.06,44.06,0.00,0.00,0.00
"USC00502425","1971-06-19",75.02,48.92,0.00,0.00,0.00
"USC00502425","1971-06-20",78.98,57.02,0.00,0.00,0.00
"USC00502425","1971-06-21",80.06,57.92,25.00,0.00,0.00
"USC00502425","1971-06-22",84.02,48.92,0.00,0.00,0.00
"USC00502425","1971-06-23",80.06,51.08,0.00,0.00,0.00
"USC00502425","1971-06-24",84.92,51.08,0.00,0.00,0.00
"USC00502425","1971-06-25",84.02,51.98,0.00,0.00,0.00
"USC00502425","1971-06-26",80.96,46.04,0.00,0.00,0.00
"USC00502425","1971-06-27",78.98,46.04,0.00,0.00,0.00
"USC00502425","1971-06-28",-22.00,-41.08,0.00,0.00,0.00
"USC00502425","1971-06-29",53.96,33.08,13.00,0.00,0.00
"USC00502425","1971-06-30",57.92,42.98,0.00,0.00,0.00
"USC00502425","1971-07-01",66.02,37.94,0.00,0.00,0.00
"USC00502425","1971-07-02",68.00,39.92,0.00,0.00,0.00
"USC00502425","1971-07-03",75.02,41.00,0.00,0.00,0.00
"USC00502425","1971-07-04",75.02,50.00,0.00,0.00,0.00
"USC00502425","1971-07-05",75.02,39.92,0.00,0.00,0.00
"USC00502425","1971-07-06",75.02,39.92,0.00,0.00,0.00
"USC00502425","1971-07-07",73.04,46.94,30.00,0.00,0.00
"USC00502425","1971-07-08",73.94,39.92,46.00,0.00,0.00
"USC00502425","1971-07-09",71.06,48.92,0.00,0.00,0.00
"USC00502425","1971-07-10",66.92,55.94,76.00,0.00,0.00
"USC00502425","1971-07-11",69.08,51.98,15.00,0.00,0.00
"USC00502425","1971-07-12",66.02,39.02,0.00,0.00,0.00
"USC00502425","1971-07-13",62.06,44.06,10.00,0.00,0.00
"USC00502425","1971-07-14",51.98,41.00,8.00,0.00,0.00
"USC00502425","1971-07-15",53.06,35.96,20.00,0.00,0.00
"USC00502425","1971-07-16",57.92,32.00,8.00,0.00,0.00
"USC00502425","1971-07-17",62.06,37.94,3.00,0.00,0.00
"USC00502425","1971-07-18",73.04,44.06,0.00,0.00,0.00
"USC00502425","1971-07-19",75.92,48.02,23.00,0.00,0.00
"USC00502425","1971-07-20",78.08,51.98,56.00,0.00,0.00
"USC00502425","1971-07-21",60.98,48.02,18.00,0.00,0.00
"USC00502425","1971-07-22",66.92,35.96,0.00,0.00,0.00
"USC00502425","1971-07-23",69.98,35.06,0.00,0.00,0.00
"USC00502425","1971-07-24",66.92,42.98,0.00,0.00,0.00
"USC00502425","1971-07-25",73.04,51.08,18.00,0.00,0.00
"USC00502425","1971-07-26",66.92,42.98,18.00,0.00,0.00
"USC00502425","1971-07-27",64.04,44.96,56.00,0.00,0.00
"USC00502425","1971-07-28",-22.00,-41.08,69.00,0.00,0.00
"USC00502425","1971-07-29",55.94,37.94,3.00,0.00,0.00
"USC00502425","1971-07-30",55.94,42.08,0.00,0.00,0.00
"USC00502425","1971-07-31",55.04,39.92,0.00,0.00,0.00
"USC00502425","1971-08-01",57.02,44.96,41.00,0.00,0.00
"USC00502425","1971-08-02",59.00,30.02,23.00,0.00,0.00
"USC00502425","1971-08-03",57.02,28.94,0.00,0.00,0.00
"USC00502425","1971-08-04",55.94,30.92,0.00,0.00,0.00
"USC00502425","1971-08-05",62.06,28.04,0.00,0.00,0.00
"USC00502425","1971-08-06",62.96,33.08,18.00,0.00,0.00
"USC00502425","1971-08-07",62.06,37.04,8.00,0.00,0.00
"USC00502425","1971-08-08",62.96,41.00,13.00,0.00,0.00
"USC00502425","1971-08-09",60.98,35.96,0.00,0.00,0.00
"USC00502425","1971-08-10",60.08,33.08,0.00,0.00,0.00
"USC00502425","1971-08-11",66.92,35.06,0.00,0.00,0.00
"USC00502425","1971-08-12",64.04,33.08,3.00,0.00,0.00
"USC00502425","1971-08-13",60.08,35.06,0.00,0.00,0.00
"USC00502425","1971-08-14",57.92,35.06,0.00,0.00,0.00
"USC00502425","1971-08-15",60.08,28.04,0.00,0.00,0.00
"USC00502425","1971-08-16",62.06,28.94,0.00,0.00,0.00
"USC00502425","1971-08-17",60.98,35.96,0.00,0.00,0.00
"USC00502425","1971-08-18",66.92,41.00,0.00,0.00,0.00
"USC00502425","1971-08-19",64.94,44.06,15.00,0.00,0.00
"USC00502425","1971-08-20",53.06,44.06,0.00,0.00,0.00
"USC00502425","1971-08-21",57.92,44.96,0.00,0.00,0.00
"USC00502425","1971-08-22",64.94,42.08,0.00,0.00,0.00
"USC00502425","1971-08-23",59.00,42.98,0.00,0.00,0.00
"USC00502425","1971-08-24",62.96,33.98,0.00,0.00,0.00
"USC00502425","1971-08-25",60.98,39.02,5.00,0.00,0.00
"USC00502425","1971-08-26",60.98,26.96,0.00,0.00,0.00
"USC00502425","1971-08-27",60.08,30.02,0.00,0.00,0.00
"USC00502425","1971-08-28",-22.00,-41.08,0.00,0.00,0.00
"USC00502425","1971-08-29",64.94,28.04,0.00,0.00,0.00
"USC00502425","1971-08-30",62.06,28.94,0.00,0.00,0.00
"USC00502425","1971-08-31",55.94,30.02,0.00,0.00,0.00
"USC00502425","1971-09-01",60.08,28.94,0.00,0.00,0.00
"USC00502425","1971-09-02",50.00,33.98,56.00,0.00,0.00
"USC00502425","1971-09-03",53.06,35.06,0.00,0.00,0.00
"USC00502425","1971-09-04",50.00,32.00,0.00,0.00,0.00
"USC00502425","1971-09-05",44.06,24.08,0.00,0.00,0.00
"USC00502425","1971-09-06",50.00,24.08,0.00,0.00,0.00
"USC00502425","1971-09-07",44.96,33.08,0.00,0.00,0.00
"USC00502425","1971-09-08",44.06,21.02,0.00,0.00,0.00
"USC00502425","1971-09-09",48.92,10.94,0.00,0.00,0.00
"USC00502425","1971-09-10",44.06,19.04,0.00,0.00,0.00
"USC00502425","1971-09-11",48.02,19.94,0.00,0.00,0.00
"USC00502425","1971-09-12",44.06,10.94,0.00,0.00,0.00
"USC00502425","1971-09-13",44.96,21.02,0.00,0.00,0.00
"USC00502425","1971-09-14",50.00,17.06,0.00,0.00,0.00
"USC00502425","1971-09-15",53.96,15.98,0.00,0.00,0.00
"USC00502425","1971-09-16",48.02,33.98,76.00,0.00,0.00
"USC00502425","1971-09-17",46.04,33.98,3.00,0.00,0.00
"USC00502425","1971-09-18",48.02,21.02,0.00,0.00,0.00
"USC00502425","1971-09-19",46.04,23.00,8.00,0.00,0.00
"USC00502425","1971-09-20",46.94,35.06,23.00,0.00,0.00
"USC00502425","1971-09-21",44.06,37.04,28.00,0.00,0.00
"USC00502425","1971-09-22",44.96,19.94,0.00,0.00,0.00
"USC00502425","1971-09-23",44.06,19.94,10.00,0.00,0.00
"USC00502425","1971-09-24",44.06,33.98,13.00,0.00,0.00
"USC00502425","1971-09-25",39.92,32.00,25.00,0.00,0.00
"USC00502425","1971-09-26",44.06,26.06,0.00,0.00,0.00
"USC00502425","1971-09-27",35.96,10.94,0.00,0.00,0.00
"USC00502425","1971-09-28",-22.00,-41.08,0.00,0.00,0.00
"USC00502425","1971-09-29",35.96,12.02,0.00,0.00,0.00
"USC00502425","1971-09-30",35.06,15.08,0.00,0.00,0.00
"USC00502425","1971-10-01",33.08,17.96,0.00,0.00,0.00
"USC00502425","1971-10-02",28.94,17.96,28.00,0.00,0.00
"USC00502425","1971-10-03",28.94,17.96,0.00,0.00,0.00
"USC00502425","1971-10-04",28.94,-5.98,0.00,0.00,0.00
"USC00502425","1971-10-05",24.08,-5.08,0.00,0.00,0.00
"USC00502425","1971-10-06",26.06,3.02,0.00,0.00,0.00
"USC00502425","1971-10-07",24.08,-0.04,0.00,0.00,0.00
"USC00502425","1971-10-08",33.08,8.96,28.00,25.00,0.00
"USC00502425","1971-10-09",32.00,21.92,0.00,0.00,0.00
"USC00502425","1971-10-10",37.04,15.08,8.00,13.00,0.00
"USC00502425","1971-10-11",26.06,-0.04,5.00,25.00,0.00
"USC00502425","1971-10-12",19.04,-13.00,0.00,0.00,0.00
"USC00502425","1971-10-13",14.00,-9.94,0.00,0.00,0.00
"USC00502425","1971-10-14",19.04,-9.94,0.00,0.00,0.00
"USC00502425","1971-10-15",26.96,10.04,25.00,38.00,0.00
"USC00502425","1971-10-16",30.02,10.04,0.00,0.00,0.00
"USC00502425","1971-10-17",28.04,-5.08,0.00,0.00,0.00
"USC00502425","1971-10-18",19.04,-5.98,0.00,0.00,0.00
"USC00502425","1971-10-19",21.92,-5.98,0.00,0.00,0.00
"USC00502425","1971-10-20",14.00,-23.08,0.00,0.00,0.00
"USC00502425","1971-10-21",3.92,-25.06,0.00,0.00,0.00
"USC00502425","1971-10-22",-0.04,-23.98,0.00,0.00,0.00
"USC00502425","1971-10-23",5.00,-23.98,0.00,0.00,0.00
"USC00502425","1971-10-24",3.02,-23.08,0.00,0.00,0.00
"USC00502425","1971-10-25",-2.92,-25.96,10.00,25.00,0.00
"USC00502425","1971-10-26",12.02,-7.96,33.00,38.00,0.00
"USC00502425","1971-10-27",17.96,-5.98,38.00,51.00,0.00
"USC00502425","1971-10-28",-22.00,-41.08,0.00,0.00,0.00
"USC00502425","1971-10-29",12.92,6.98,0.00,0.00,0.00
"USC00502425","1971-10-30",8.06,-9.94,0.00,0.00,0.00
"USC00502425","1971-10-31",-5.08,-29.02,0.00,0.00,0.00
"USC00502425","1971-11-01",-2.92,-29.92,0.00,0.00,
"USC00502425","1971-11-02",-0.94,-29.92,0.00,0.00,
"USC00502425","1971-11-03",-5.98,-29.02,0.00,0.00,
"USC00502425","1971-11-04",-2.02,-23.98,0.00,0.00,
"USC00502425","1971-11-05",8.96,-2.92,0.00,0.00,
"USC00502425","1971-11-06",12.92,5.00,0.00,0.00,
"USC00502425","1971-11-07",8.96,-23.98,15.00,0.00,
"USC00502425","1971-11-08",-5.08,-23.98,0.00,0.00,
"USC00502425","1971-11-09",-5.08,-29.02,0.00,0.00,
"USC00502425","1971-11-10",5.00,-11.92,0.00,0.00,203.00
"USC00502425","1971-11-11",10.04,-0.04,15.00,20.00,229.00
"USC00502425","1971-11-12",6.08,-9.94,0.00,0.00,
"USC00502425","1971-11-13",3.92,-14.98,0.00,0.00,
"USC00502425","1971-11-14",-5.98,-25.06,0.00,0.00,
"USC00502425","1971-11-15",-14.98,-23.98,0.00,0.00,
"USC00502425","1971-11-16",-2.02,-23.98,0.00,0.00,
"USC00502425","1971-11-17",-0.94,-20.02,0.00,0.00,
"USC00502425","1971-11-18",15.98,-11.92,8.00,8.00,229.00
"USC00502425","1971-11-19",17.06,6.08,102.00,114.00,381.00
"USC00502425","1971-11-20",17.06,12.92,97.00,102.00,432.00
"USC00502425","1971-11-21",19.04,8.96,99.00,104.00,483.00
"USC00502425","1971-11-22",10.04,-20.02,0.00,0.00,483.00
"USC00502425","1971-11-23",-20.02,-45.94,0.00,0.00,483.00
"USC00502425","1971-11-24",-11.92,-34.06,0.00,0.00,483.00
"USC00502425","1971-11-25",-29.02,-43.96,0.00,0.00,483.00
"USC00502425","1971-11-26",-38.02,-45.94,0.00,0.00,483.00
"USC00502425","1971-11-27",-31.00,-45.04,0.00,0.00,483.00
"USC00502425","1971-11-28",-22.00,-41.08,0.00,0.00,483.00
"USC00502425","1971-11-29",-5.98,-34.06,0.00,0.00,483.00
"USC00502425","1971-11-30",-14.98,-36.04,0.00,0.00,
"USC00502425","1971-12-01",-29.92,-40.00,0.00,0.00,483.00
"USC00502425","1971-12-02",-32.08,-40.00,0.00,0.00,483.00
"USC00502425","1971-12-03",-16.06,-40.00,0.00,0.00,483.00
"USC00502425","1971-12-04",3.02,-34.96,0.00,0.00,483.00
"USC00502425","1971-12-05",-20.92,-40.00,0.00,0.00,483.00